Вернуться в каталог

COSMOS 1191 DEB

LostHEO
NORAD 26978·DEBRIS·🇷🇺 Russia

Запущен Jul 2, 1980 с Plesetsk Cosmodrome

Loading…

Ближайшие Пролёты (ближайшие 24 часа)

TLE

УстаревшееSource: Space-Track

Эпоха: Feb 22, 2016, 15:16 UTC

1 26978U 80057J   16053.63617664  .00000640  00000-0  00000+0 0  9995
2 26978  67.5240   5.2412 5850689  81.0399  66.1223  1.99688993112920

Отслеживайте COSMOS 1191 DEB в реальном времени с AllMySat

Download on the App Store